Tracking 23885 objects as of 28-Nov-2021
HD Live streaming from Space Station
objects crossing your sky now

BREEZE-M R/B

Track BREEZE-M R/B now!


NORAD ID: 26738
Int'l Code: 2001-014C
Perigee: 35,717.2 km
Apogee: 37,188.6 km
Inclination: 13.7 °
Period: 1,469.9 minutes
Semi major axis: 42823 km
RCS: 0.6845 m2 (medium)
Launch date: April 7, 2001
Source: Commonwealth of Independent States (former USSR) (CIS)
Launch site: TYURATAM MISSILE AND SPACE COMPLEX (TTMTR)

Note: This is a ROCKET BODY
aabbcc
Your satellite tracking list
Your tracking list is empty




NASA's NSSDC Master Catalog

Two Line Element Set (TLE):
1 26738U 01014C   21332.01690698 -.00000246  00000-0  00000+0 0  9994
2 26738  13.7464  26.7107 0171792 194.2203 342.0643  0.97965558 73921
Source of the keplerian elements: AFSPC